Location: Deer Path Park
(40.5570°N, 74.8450°W)
Time: 22:09:34
(UTC-04:00)

Iridium 49 - Visible Passes

Search period start: 26 June 2016 00:00
Search period end: 06 July 2016 00:00
Orbit: 776 x 779 km, 86.4° (Epoch: 26 June)

Date Brightness Start Highest point End Pass type
(mag) Time Alt. Az. Time Alt. Az. Time Alt. Az.
26 Jun 7.1 21:47:15 10° NNW 21:52:11 44° W 21:57:06 10° SSW visible
27 Jun 6.2 21:13:31 10° N 21:18:46 83° W 21:23:58 10° S visible
28 Jun 8.6 22:22:08 10° NW 22:25:25 17° W 22:28:42 10° WSW visible
29 Jun 7.8 21:47:38 10° NNW 21:52:11 31° W 21:56:42 10° SW visible
30 Jun 6.8 21:13:42 10° N 21:18:49 57° W 21:23:54 10° SSW visible
01 Jul 8.9 22:23:35 10° WNW 22:25:17 12° WNW 22:26:59 10° W visible
02 Jul 8.5 21:48:14 10° NNW 21:52:07 22° W 21:56:00 10° SW visible
03 Jul 7.5 21:14:00 10° NNW 21:18:50 39° W 21:23:38 10° SSW visible
05 Jul 8.8 21:49:08 10° NW 21:52:01 15° WNW 21:54:54 10° WSW visible
